Flag for Turkmenistan Weather past 2 weeks in Ashgabat, Turkmenistan

Now
102 °F

Partly sunny.


Feels Like: 98 °F
Forecast: 84 / 101 °F
Wind: 6 mph from North

Location: Ashgabat

Current Time: Jul 31, 2015 at 4:39:27 PM

Latest Report: Jul 31, 2015 at 4:00 PM


Visibility: N/A

Pressure: 29.77 "Hg

Humidity: 15%

Dew point: 46 °F

Location of AshgabatLocation

Historic Weather in Ashgabat — Graph

°F

Ashgabat temperature yesterday

Maximum temperature yesterday: 108 °F (at 5:00 PM)
Minimum temperature yesterday: 77 °F (at 6:00 AM)
Average temperature yesterday: 94 °F

Past Weeks' High & Low Weather Summary

 TemperatureHumidityPressure
High108 °F (Jul 16, 3:30 PM)94% (Jul 20, 10:00 AM)29.98 "Hg (Jul 20, 10:00 AM)
Low64 °F (Jul 20, 10:00 AM)7% (Jul 29, 2:30 PM)29.62 "Hg (Jul 27, 6:00 PM)
Average89 °F28%29.80 "Hg
* Reported Jul 16 3:00 PM — Jul 31 3:30 PM, Ashgabat, Weather by CustomWeather, © 2015

Note: Actual official high and low records may vary slightly from our data, if they occured in-between our weather recording intervals... More about our weather records

Advertising

Ashgabat weather history for previous 24 hours

 ConditionsComfort  
Time TempWeatherWind HumidityBarometerVisibility
3:30 PM
Fri, Jul 31
102 °FScattered clouds.6 mph16%29.77 "HgN/A
3:00 PM102 °FScattered clouds.3 mph16%29.77 "HgN/A
2:00 PM100 °FScattered clouds.6 mph17%29.80 "HgN/A
1:00 PM99 °FScattered clouds.8 mph19%29.83 "HgN/A
12:00 PM99 °FPassing clouds.6 mph19%29.83 "HgN/A
11:00 AM95 °FPassing clouds.3 mph23%29.83 "HgN/A
10:00 AM93 °FSunny.1 mph24%29.83 "HgN/A
9:00 AM90 °FSunny.3 mph29%29.83 "HgN/A
8:00 AM88 °FSunny.6 mph29%29.83 "HgN/A
7:00 AM82 °FClear.3 mph35%29.83 "HgN/A
6:00 AM79 °FClear.No wind37%29.83 "HgN/A
5:00 AM79 °FClear.3 mph39%29.80 "HgN/A
4:00 AM81 °FClear.3 mph39%29.77 "Hg4 mi
3:00 AM82 °FPassing clouds.1 mph35%29.77 "HgN/A
2:00 AM84 °FPassing clouds.No wind29%29.77 "HgN/A
1:00 AM84 °FPartly cloudy.3 mph29%29.77 "HgN/A
12:00 AM90 °FPartly cloudy.8 mph22%29.80 "HgN/A
11:00 PM
Thu, Jul 30
91 °FPassing clouds.8 mph20%29.80 "HgN/A
10:30 PM91 °FMostly cloudy.15 mph21%29.83 "HgN/A
10:00 PM90 °FMostly cloudy.22 mph22%29.83 "HgN/A
9:30 PM88 °FSprinkles. Passing clouds.20 mph29%29.83 "HgN/A
9:00 PM91 °FSprinkles. Partly sunny.20 mph21%29.83 "HgN/A
8:30 PM93 °FSprinkles. Partly sunny.22 mph20%29.83 "Hg3 mi
8:00 PM91 °FPartly sunny.20 mph21%29.80 "Hg2 mi
7:30 PM93 °FBroken clouds.20 mph21%29.80 "Hg4 mi
7:00 PM93 °FBroken clouds.20 mph24%29.77 "Hg3 mi
6:30 PM99 °FBroken clouds.15 mph14%29.77 "HgN/A
6:00 PM99 °FBroken clouds.20 mph16%29.74 "Hg5 mi
5:30 PM100 °FBroken clouds.26 mph17%29.74 "Hg3 mi
5:00 PM108 °FBroken clouds.6 mph7%29.74 "HgN/A
4:30 PM106 °FPartly sunny.6 mph8%29.74 "HgN/A
4:00 PM106 °FScattered clouds.6 mph8%29.74 "HgN/A
Weather by CustomWeather, © 2015

See weather overviewHow to use our weather pages